Tracking 17884 objects as of 4-December-2016
HD Live streaming from Space Station
objects crossing your sky now

ESSA 1 (OT-3)

Track ESSA 1 (OT-3) now!
10-day predictions
ESSA 1 (OT-3) is classified as:


NORAD ID: 1982
Int'l Code: 1966-008A
Perigee: 684.5 km
Apogee: 802.0 km
Inclination: 97.8 °
Period: 99.5 minutes
Semi major axis: 7114 km
RCS: 0.7257 m2 (medium)
Launch date: February 3, 1966
Source: United States (US)
Launch site: AIR FORCE EASTERN TEST RANGE (AFETR)
Your satellite tracking list
Your tracking list is empty





NASA's NSSDC Master Catalog

Two Line Element Set (TLE):
1 01982U 66008A   16339.12289644  .00000035  00000-0  20453-4 0  9994
2 01982  97.8418 200.6995 0082560  37.7817 322.9134 14.46800957675066
Source of the keplerian elements: AFSPC